Flag for Mexico Weather past 2 weeks in Playa del Carmen, Quintana Roo, Mexico

Now
66 °F

Passing clouds.


Feels Like: 66 °F
Forecast: 65 / 79 °F
Wind: 10 mph from North

Location: Cozumel Civ / Mil

Current Time: Jan 24, 2015 at 10:51:18 PM

Latest Report: Jan 24, 2015 at 9:52 PM


Visibility: 7 mi

Pressure: 30.11 "Hg

Humidity: 78%

Dew point: 59 °F

Location of Playa del CarmenLocation

Historic Weather in Playa del Carmen — Graph

°F

Playa del Carmen temperature yesterday

Maximum temperature yesterday: 79 °F (at 9:40 AM)
Minimum temperature yesterday: 72 °F (at 5:53 AM)
Average temperature yesterday: 75 °F

Past Weeks' High & Low Weather Summary

 TemperatureHumidityPressure
High79 °F (Jan 12, 2:41 PM)100% (Jan 10, 10:54 PM)30.20 "Hg (Jan 10, 10:54 PM)
Low61 °F (Jan 15, 1:43 AM)69% (Jan 24, 4:52 PM)29.93 "Hg (Jan 20, 5:43 PM)
Average71 °F93%30.05 "Hg
* Reported Jan 9 8:50 PM — Jan 24 8:44 PM, Playa del Carmen, Weather by CustomWeather, © 2014

Note: Actual official high and low records may vary slightly from our data, if they occured in-between our weather recording intervals... More about our weather records

Advertising

Playa del Carmen weather history for previous 24 hours

 ConditionsComfort  
Time TempWeatherWind HumidityBarometerVisibility
8:44 PM
Jan 24
66 °FPassing clouds.14 mph78%30.13 "Hg7 mi
7:50 PM66 °FPassing clouds.17 mph78%30.10 "Hg7 mi
6:43 PM68 °FPassing clouds.17 mph78%30.08 "Hg7 mi
5:45 PM68 °FPassing clouds.12 mph78%30.04 "Hg7 mi
4:52 PM70 °FScattered clouds.16 mph69%30.05 "Hg7 mi
2:44 PM70 °FMore clouds than sun.18 mph78%30.06 "Hg7 mi
1:50 PM70 °FMore clouds than sun.14 mph83%30.04 "Hg7 mi
12:46 PM72 °FMostly cloudy.17 mph83%30.06 "Hg7 mi
11:43 AM72 °FMostly cloudy.16 mph83%30.07 "Hg7 mi
10:46 AM70 °FCloudy.17 mph94%30.10 "Hg7 mi
10:37 AM70 °FCloudy.17 mph94%30.10 "Hg7 mi
9:40 AM70 °FMostly cloudy.18 mph94%30.11 "Hg7 mi
8:50 AM68 °FLight rain. Mostly cloudy.17 mph100%30.12 "Hg6 mi
7:55 AM68 °FMostly cloudy.13 mph100%30.08 "Hg7 mi
6:42 AM68 °FRain. Mostly cloudy.12 mph100%30.05 "Hg5 mi
5:47 AM68 °FRain. Passing clouds.17 mph100%30.01 "Hg4 mi
4:53 AM72 °FRain. Passing clouds.9 mph100%30.00 "Hg4 mi
3:48 AM72 °FPassing clouds.No wind100%29.98 "Hg8 mi
2:44 AM72 °FPassing clouds.16 mph100%29.98 "Hg7 mi
1:46 AM72 °FHeavy rain. Overcast.9 mph100%29.97 "Hg2 mi
12:47 AM72 °FPartly cloudy.3 mph100%29.98 "Hg7 mi
11:49 PM
Jan 23
72 °FPassing clouds.No wind100%29.96 "Hg7 mi
10:51 PM72 °FPassing clouds.3 mph100%29.98 "Hg7 mi
Weather by CustomWeather, © 2014

See weather overviewHow to use our weather pages